            UTC date,        Decimal date,     TCCON,      CAMS,       CSU,        OU, TM5-4DVAR,      Ames,        CT,        UT,      LoFI,     Baker,  CMS-Flux
 2014-07-02 15:04:59,   2014.500351946981,  395.4125,       nan,       nan,  399.4057,       nan,       nan,       nan,       nan,  395.1407,  397.3600,       nan
 2014-07-02 15:30:08,   2014.500399797057,  395.4700,       nan,       nan,  399.4060,       nan,       nan,       nan,       nan,  395.1411,  397.3600,       nan
 2014-07-02 16:02:15,   2014.500460901827,  395.4714,       nan,       nan,  399.4060,       nan,       nan,       nan,       nan,  395.1411,  397.3600,       nan
 2014-07-02 16:31:43,   2014.500516964739,  395.5000,       nan,       nan,  399.4022,       nan,       nan,       nan,       nan,  395.1415,  397.3600,       nan
 2014-07-02 16:57:37,   2014.500566241755,  395.6375,       nan,       nan,  399.4025,       nan,       nan,       nan,       nan,  395.1419,  397.3600,       nan
 2014-07-02 17:29:57,   2014.500627758752,  395.8167,       nan,       nan,  399.4028,       nan,       nan,       nan,       nan,  395.1424,  397.3600,       nan
 2014-07-02 17:54:32,   2014.500674530695,  395.8500,       nan,       nan,  399.4027,       nan,       nan,       nan,       nan,  395.1423,  397.3600,       nan
 2014-07-09 19:05:34,   2014.519987760020,  395.2111,       nan,       nan,  398.7063,       nan,       nan,       nan,       nan,  394.6757,  397.2900,       nan
 2014-07-09 19:31:24,   2014.520036910198,  395.2750,       nan,       nan,  398.6865,       nan,       nan,       nan,       nan,  394.6757,  397.2800,       nan
 2014-07-09 20:00:55,   2014.520093068239,  395.1917,       nan,       nan,  398.6865,       nan,       nan,       nan,       nan,  394.6757,  397.2700,       nan
 2014-07-09 20:18:08,   2014.520125824455,  395.0000,       nan,       nan,  398.6865,       nan,       nan,       nan,       nan,  394.6757,  397.2600,       nan
 2014-07-10 15:36:44,   2014.522330162354,  395.2000,       nan,       nan,  398.4863,       nan,       nan,       nan,       nan,  394.5783,  397.0500,       nan
 2014-07-10 16:00:04,   2014.522374556063,  395.0900,       nan,       nan,  398.4859,       nan,       nan,       nan,       nan,  394.5780,  397.0600,       nan
 2014-07-10 16:31:43,   2014.522434772958,  395.2182,       nan,       nan,  398.4758,       nan,       nan,       nan,       nan,  394.5777,  397.0600,       nan
 2014-07-10 17:01:11,   2014.522490835870,  395.1833,       nan,       nan,  398.4762,       nan,       nan,       nan,       nan,  394.5781,  397.0600,       nan
 2014-07-10 18:04:44,   2014.522611745307,  395.2000,       nan,       nan,  398.4673,       nan,       nan,       nan,       nan,  394.5267,  397.0700,       nan
 2014-07-10 18:23:15,   2014.522646974886,  395.2333,       nan,       nan,  398.4674,       nan,       nan,       nan,       nan,  394.5268,  397.0700,       nan
 2014-07-15 19:14:13,   2014.536442573567,  394.1000,       nan,       nan,  397.4356,       nan,       nan,       nan,       nan,  393.5666,  396.4200,       nan
 2014-07-15 19:30:15,   2014.536473078387,  394.0916,       nan,       nan,  397.4180,       nan,       nan,       nan,       nan,  393.5665,  396.4100,       nan
 2014-07-15 19:46:15,   2014.536503519787,  394.0000,       nan,       nan,  397.4179,       nan,       nan,       nan,       nan,  393.5664,  396.4100,       nan
 2015-05-21 17:11:07,   2015.385523433536,  402.8000,  405.1121,  402.6149,  407.0232,  403.7475,  405.7982,  404.1001,  404.0198,  402.1048,  404.5300,  402.0258
 2015-05-21 17:32:22,   2015.385563863521,  402.6429,  405.1102,  402.6158,  407.0232,  403.7466,  405.7982,  404.1001,  404.0198,  402.1048,  404.5300,  402.0258
 2015-05-21 18:01:15,   2015.385618816591,  402.5083,  405.1093,  402.6172,  407.0249,  403.7461,  405.8009,  404.1031,  404.0146,  402.0752,  404.5300,  402.0217
 2015-05-21 18:17:02,   2015.385648845764,  402.3000,  405.1129,  402.6172,  407.0249,  403.7461,  405.8009,  404.1031,  404.0146,  402.0752,  404.5400,  402.0218
 2015-05-24 16:32:38,   2015.393669393709,  402.1417,  404.8798,  402.5929,  406.7841,  403.5626,  405.7199,  403.8717,  404.3521,  402.1364,  405.0400,  402.0910
 2015-05-24 17:00:57,   2015.393723268645,  402.1000,  404.8809,  402.5919,  406.7830,  403.5589,  405.7108,  403.8717,  404.3599,  402.1352,  405.0500,  402.0915
 2015-05-24 17:30:29,   2015.393779458397,  402.1385,  404.8813,  402.5910,  406.7825,  403.5555,  405.7102,  403.8717,  404.3596,  402.1347,  405.0600,  402.0912
 2015-05-24 18:01:05,   2015.393837677575,  402.0800,  404.8812,  402.5894,  406.7719,  403.5524,  405.7024,  403.8577,  404.3664,  402.1609,  405.0600,  402.0924
 2015-05-24 18:30:31,   2015.393893677068,  402.1500,  404.8886,  402.5877,  406.7724,  403.5494,  405.7030,  403.8577,  404.3667,  402.1614,  405.0700,  402.0927
 2015-05-24 18:56:30,   2015.393943112633,  401.9700,  404.8940,  402.5877,  406.7717,  403.5487,  405.7020,  403.8577,  404.3663,  402.1606,  405.0700,  402.0922
 2015-05-25 16:12:16,   2015.396370370370,  402.6000,  404.8829,  402.6290,  406.5960,  403.3561,  405.7964,  403.6805,  404.2426,  402.0973,  405.1100,  402.0537
 2015-05-25 16:15:50,   2015.396377156266,  403.0000,  404.8682,  402.6290,  406.5958,  403.3559,  405.7961,  403.6805,  404.2424,  402.0970,  405.1100,  402.0535
 2015-05-26 16:08:31,   2015.399102961695,  402.1000,  404.7287,  402.4210,  406.6037,  403.2111,  405.2180,  403.6505,  404.1884,  401.9607,  404.4100,  402.0151
 2015-05-26 16:31:08,   2015.399145991882,  402.0167,  404.7286,  402.4201,  406.6059,  403.2100,  405.2191,  403.6397,  404.1890,  401.9617,  404.4100,  402.0156
 2015-05-26 17:00:37,   2015.399202086504,  402.1693,  404.7286,  402.4194,  406.6069,  403.2090,  405.2180,  403.6397,  404.1961,  401.9628,  404.4100,  402.0186
 2015-05-26 17:31:19,   2015.399260495941,  402.1923,  404.7285,  402.4188,  406.6071,  403.2072,  405.2183,  403.6397,  404.1962,  401.9631,  404.4100,  402.0187
 2015-05-26 17:58:26,   2015.399312087773,  402.1800,  404.7283,  402.4188,  406.6085,  403.2084,  405.2199,  403.6397,  404.1971,  401.9645,  404.4100,  402.0196
 2015-05-26 18:38:45,   2015.399388793759,  401.8200,  404.7326,  402.4124,  406.6087,  403.2049,  405.2134,  403.6269,  404.2008,  401.8991,  404.4000,  402.0183
 2015-05-26 19:00:00,   2015.399429223744,  401.9308,  404.7338,  402.4096,  406.6087,  403.2031,  405.2027,  403.6269,  404.2014,  401.8991,  404.4000,  402.0168
 2015-05-26 19:20:10,   2015.399467592593,  401.9500,  404.7347,  402.4096,  406.6087,  403.2031,  405.2027,  403.6269,  404.2014,  401.8991,  404.4000,  402.0169
 2015-05-27 16:05:56,   2015.401837772704,  402.2556,  404.4482,  402.4256,  406.5366,  403.0827,  405.0912,  403.4169,  404.2599,  401.8367,  404.3500,  402.0563
 2015-05-27 16:31:04,   2015.401885591071,  402.2250,  404.4415,  402.4237,  406.5318,  403.0804,  405.0907,  403.4272,  404.2597,  401.8363,  404.3300,  402.0560
 2015-05-27 17:00:40,   2015.401941907661,  402.1769,  404.4367,  402.4217,  406.5307,  403.0776,  405.0827,  403.4272,  404.2563,  401.8351,  404.3200,  402.0525
 2015-05-27 17:30:23,   2015.401998446220,  402.1167,  404.4338,  402.4197,  406.5302,  403.0754,  405.0820,  403.4386,  404.2561,  401.8346,  404.3000,  402.0522
 2015-05-27 17:59:55,   2015.402054635972,  402.1308,  404.4322,  402.4197,  406.5297,  403.0749,  405.0813,  403.4386,  404.2558,  401.8340,  404.2800,  402.0518
 2015-05-27 18:25:14,   2015.402102803146,  402.1125,  404.4349,  402.4187,  406.5243,  403.0722,  405.0747,  403.4491,  404.2527,  401.9112,  404.2600,  402.0490
 2015-05-27 19:00:04,   2015.402169076611,  402.0385,  404.4376,  402.4165,  406.5242,  403.0690,  405.0711,  403.4574,  404.2505,  401.9111,  404.2500,  402.0469
 2015-05-27 19:24:50,   2015.402216197362,  402.3000,  404.4401,  402.4165,  406.5247,  403.0695,  405.0719,  403.4574,  404.2508,  401.9117,  404.2300,  402.0473
 2015-06-02 15:32:20,   2015.418212201928,  402.2500,  404.3582,  401.9387,  406.5085,  402.4206,  404.6495,  403.0746,  403.9735,  401.4822,  404.0100,  401.9449
 2015-06-02 16:01:02,   2015.418266806190,  402.3750,  404.3573,  401.9402,  406.5085,  402.4246,  404.6559,  403.0746,  403.9829,  401.4822,  404.0100,  401.9518
 2015-06-02 16:30:44,   2015.418323313039,  402.1692,  404.3556,  401.9415,  406.5061,  402.4287,  404.6559,  403.0845,  403.9829,  401.4822,  404.0000,  401.9518
 2015-06-02 17:01:16,   2015.418381405378,  402.3083,  404.3532,  401.9425,  406.5061,  402.4330,  404.6607,  403.0845,  403.9901,  401.4822,  404.0000,  401.9563
 2015-06-02 17:23:52,   2015.418424403856,  402.3667,  404.3500,  401.9425,  406.5061,  402.4330,  404.6607,  403.0845,  403.9901,  401.4822,  404.0000,  401.9563
 2015-06-03 15:13:51,   2015.420916761796,  401.6000,  404.0682,  401.9441,  406.5728,  402.7110,  404.6199,  402.9515,  403.9287,  401.5078,  403.6600,  401.8394
 2015-06-03 15:30:22,   2015.420948186200,  402.2384,  404.0622,  401.9432,  406.5728,  402.7138,  404.6199,  402.9515,  403.9287,  401.5078,  403.6600,  401.8394
 2015-06-03 16:01:00,   2015.421006468797,  402.2308,  404.0571,  401.9424,  406.5728,  402.7162,  404.6147,  402.9515,  403.9274,  401.5078,  403.6500,  401.8368
 2015-06-03 16:30:29,   2015.421062563420,  402.1667,  404.0521,  401.9417,  406.5826,  402.7183,  404.6147,  402.9422,  403.9274,  401.5078,  403.6500,  401.8368
 2015-06-03 16:54:06,   2015.421107496195,  402.1750,  404.0472,  401.9417,  406.5826,  402.7183,  404.6147,  402.9422,  403.9274,  401.5078,  403.6400,  401.8368
 2015-06-09 15:05:09,   2015.437338565449,  402.0000,  404.0360,  401.1270,  405.3790,  401.6999,  403.2637,  402.0273,  403.9020,  400.7164,  403.0400,  401.4779
 2015-06-09 15:31:09,   2015.437388032725,  401.9923,  404.0288,  401.1241,  405.3797,  401.7037,  403.2649,  402.0273,  403.9029,  400.7173,  403.0300,  401.4785
 2015-06-09 16:00:43,   2015.437444285895,  401.9584,  404.0183,  401.1221,  405.3801,  401.7068,  403.2522,  402.0273,  403.9311,  400.7178,  403.0300,  401.4779
 2015-06-09 16:31:04,   2015.437502029427,  401.7154,  404.0075,  401.1206,  405.3824,  401.7098,  403.2530,  402.0104,  403.9318,  400.7186,  403.0200,  401.4784
 2015-06-09 17:00:44,   2015.437558472856,  401.7250,  403.9965,  401.1197,  405.3824,  401.7115,  403.2461,  402.0104,  403.9622,  400.7185,  403.0100,  401.4801
 2015-06-09 17:30:16,   2015.437614662608,  401.7462,  403.9853,  401.1190,  405.3830,  401.7142,  403.2470,  402.0104,  403.9630,  400.7193,  403.0100,  401.4806
 2015-06-09 17:57:28,   2015.437666412988,  401.7700,  403.9740,  401.1190,  405.3835,  401.7150,  403.2477,  402.0104,  403.9636,  400.7200,  403.0000,  401.4811
 2015-06-09 18:43:24,   2015.437753805175,  401.4500,  403.9670,  401.1188,  405.3876,  401.7183,  403.2462,  402.0238,  403.9880,  400.7371,  403.0000,  401.4797
 2015-06-09 19:01:17,   2015.437787829782,  401.6846,  403.9561,  401.1193,  405.3876,  401.7190,  403.2492,  402.0238,  404.0068,  400.7371,  402.9900,  401.4827
 2015-06-09 19:31:00,   2015.437844368341,  401.6750,  403.9445,  401.1200,  405.3929,  401.7196,  403.2493,  402.0647,  404.0069,  400.7372,  402.9900,  401.4828
 2015-06-09 20:00:59,   2015.437901414257,  401.6167,  403.9321,  401.1209,  405.3937,  401.7213,  403.2567,  402.0647,  404.0299,  400.7383,  402.9900,  401.4900
 2015-06-09 20:27:14,   2015.437951357179,  401.6445,  403.9190,  401.1209,  405.3940,  401.7217,  403.2570,  402.0647,  404.0302,  400.7386,  402.9800,  401.4901
 2015-06-14 17:38:39,   2015.451329242770,  400.8600,  402.8344,  400.3258,  405.1654,  401.1968,  402.0388,  401.9015,  403.1852,  400.1025,  402.1700,  400.8312
 2015-06-14 17:59:56,   2015.451369736174,  401.0307,  402.7847,  400.3258,  405.1654,  401.1968,  402.0388,  401.9015,  403.1852,  400.1025,  402.1200,  400.8312
 2015-06-14 18:30:36,   2015.451428082192,  400.9308,  402.7165,  400.2998,  405.1499,  401.1928,  402.0005,  401.8365,  403.1875,  399.7800,  402.0400,  400.8163
 2015-06-14 19:01:17,   2015.451486459919,  400.9923,  402.6453,  400.2882,  405.1499,  401.1908,  401.9684,  401.8365,  403.1933,  399.7800,  401.9600,  400.8035
 2015-06-14 19:30:49,   2015.451542649670,  400.7583,  402.5732,  400.2784,  405.1362,  401.1889,  401.9684,  401.7601,  403.1933,  399.7800,  401.8500,  400.8035
 2015-06-14 20:00:19,   2015.451598776002,  400.6462,  402.5016,  400.2704,  405.1361,  401.1866,  401.9419,  401.7601,  403.1990,  399.7798,  401.7400,  400.7932
 2015-06-14 20:31:02,   2015.451657217149,  400.2231,  402.4317,  400.2643,  405.1351,  401.1834,  401.9407,  401.6986,  403.1982,  399.7788,  401.6000,  400.7923
 2015-06-14 20:47:34,   2015.451688673262,  400.3000,  402.3648,  400.2643,  405.1350,  401.1833,  401.9406,  401.6986,  403.1981,  399.7787,  401.5200,  400.7922
 2015-06-16 16:33:15,   2015.456684265601,  400.4455,  402.3779,  400.4291,  404.7249,  400.5648,  402.1186,  400.8259,  403.0260,  398.9088,  401.0200,  400.8347
 2015-06-16 16:58:56,   2015.456733130391,  400.8000,  402.3616,  400.4291,  404.7249,  400.5648,  402.1186,  400.8259,  403.0260,  398.9088,  401.0100,  400.8347
 2015-06-16 17:19:08,   2015.456771562659,  400.5500,  402.3455,  400.4324,  404.7249,  400.5642,  402.1308,  400.8259,  403.0215,  398.9088,  401.0100,  400.8473
 2015-06-17 14:43:03,   2015.459214326484,  400.6500,  402.1493,  400.5130,  404.6339,  400.4910,  402.1495,  400.6443,  403.2645,  399.0955,  401.0900,  400.9662
 2015-06-17 15:00:07,   2015.459246797311,  400.5091,  402.1414,  400.5133,  404.6314,  400.4897,  402.1452,  400.5986,  403.2720,  399.0637,  401.0900,  400.9672
 2015-06-17 15:31:12,   2015.459305936073,  400.2091,  402.1342,  400.5136,  404.6313,  400.4875,  402.1450,  400.5986,  403.2719,  399.0635,  401.0700,  400.9671
 2015-06-17 16:00:55,   2015.459362474632,  400.1833,  402.1274,  400.5139,  404.6311,  400.4851,  402.1397,  400.5986,  403.2782,  399.0632,  401.0600,  400.9677
 2015-06-17 16:30:01,   2015.459417839929,  400.2750,  402.1207,  400.5141,  404.6257,  400.4822,  402.1394,  400.5600,  403.2779,  399.0628,  401.0400,  400.9675
 2015-06-17 17:01:05,   2015.459476946981,  400.0847,  402.1142,  400.5142,  404.6251,  400.4787,  402.1351,  400.5600,  403.2844,  399.0619,  401.0200,  400.9676
 2015-06-17 17:30:37,   2015.459533136733,  399.8334,  402.1077,  400.5143,  404.6250,  400.4757,  402.1349,  400.5600,  403.2842,  399.0617,  401.0100,  400.9675
 2015-06-17 18:00:09,   2015.459589326484,  399.7000,  402.1013,  400.5140,  404.6162,  400.4729,  402.1313,  400.5243,  403.2911,  398.9909,  400.9900,  400.9678
 2015-06-17 18:30:54,   2015.459647831050,  399.6308,  402.0963,  400.5136,  404.6162,  400.4700,  402.1313,  400.5243,  403.2911,  398.9909,  400.9800,  400.9678
 2015-06-17 18:47:34,   2015.459679540842,  399.2000,  402.0918,  400.5136,  404.6164,  400.4704,  402.1316,  400.5243,  403.2913,  398.9913,  400.9700,  400.9681
 2015-06-18 16:42:09,   2015.462180650685,  400.6333,  402.2178,  400.5141,  404.4172,  400.3778,  402.2064,  400.7531,  403.4438,  399.2841,  401.3600,  401.0515
 2015-06-18 17:01:00,   2015.462216514460,  400.6769,  402.2231,  400.5118,  404.4172,  400.3781,  402.2072,  400.7531,  403.4424,  399.2841,  401.3600,  401.0546
 2015-06-18 17:30:57,   2015.462273496956,  400.5800,  402.2269,  400.5094,  404.4172,  400.3785,  402.2072,  400.7531,  403.4424,  399.2841,  401.3600,  401.0546
 2015-06-18 17:58:47,   2015.462326452308,  400.5833,  402.2291,  400.5094,  404.4172,  400.3785,  402.2072,  400.7531,  403.4424,  399.2841,  401.3600,  401.0546
 2015-06-18 20:05:19,   2015.462567193049,  400.5250,  402.2342,  400.4935,  404.4197,  400.3827,  402.1930,  400.8744,  403.4187,  399.3324,  401.3500,  401.0511
 2015-06-18 20:23:48,   2015.462602359209,  400.3667,  402.2329,  400.4935,  404.4195,  400.3825,  402.1929,  400.8744,  403.4186,  399.3322,  401.3400,  401.0510
 2015-06-25 14:43:44,   2015.481133434805,  400.2000,  402.6738,  399.0627,  403.4198,  399.0833,  400.4582,  399.7139,  402.8104,  398.2886,  400.5200,  400.3181
 2015-06-25 15:00:21,   2015.481165049467,  399.8539,  402.6803,  399.0665,  403.4276,  399.0800,  400.4775,  399.7222,  402.8204,  398.3557,  400.5300,  400.3212
 2015-06-25 15:28:57,   2015.481219463470,  400.0546,  402.6872,  399.0665,  403.4277,  399.0801,  400.4776,  399.7222,  402.8206,  398.3559,  400.5400,  400.3214
 2015-06-25 16:05:44,   2015.481289446981,  400.1200,  402.6912,  399.0741,  403.4282,  399.0750,  400.4995,  399.7222,  402.8333,  398.3565,  400.5500,  400.3247
 2015-06-25 16:30:24,   2015.481336377473,  400.1769,  402.6947,  399.0780,  403.4382,  399.0731,  400.4996,  399.7317,  402.8334,  398.3566,  400.5500,  400.3248
 2015-06-25 17:01:15,   2015.481395072298,  399.8693,  402.6978,  399.0819,  403.4383,  399.0718,  400.5212,  399.7317,  402.8462,  398.3567,  400.5600,  400.3276
 2015-06-25 17:31:45,   2015.481453101218,  400.0167,  402.7006,  399.0859,  403.4389,  399.0717,  400.5216,  399.7317,  402.8472,  398.3575,  400.5600,  400.3282
 2015-06-25 18:01:01,   2015.481508783612,  400.0500,  402.7031,  399.0924,  403.4506,  399.0722,  400.5425,  399.7279,  402.8568,  398.3893,  400.5600,  400.3309
 2015-06-25 18:30:49,   2015.481565480721,  400.1231,  402.7068,  399.0988,  403.4507,  399.0729,  400.5426,  399.7279,  402.8569,  398.3894,  400.5600,  400.3310
 2015-06-25 18:59:51,   2015.481620719178,  400.1111,  402.7066,  399.0988,  403.4512,  399.0735,  400.5430,  399.7279,  402.8577,  398.3901,  400.5600,  400.3316
 2015-06-25 19:32:22,   2015.481682584982,  399.8700,  402.7061,  399.1113,  403.4629,  399.0771,  400.5628,  399.7196,  402.8626,  398.3909,  400.5600,  400.3343
 2015-06-25 20:00:45,   2015.481736586758,  400.1250,  402.7051,  399.1173,  403.4632,  399.0796,  400.5829,  399.7196,  402.8663,  398.3912,  400.5600,  400.3366
 2015-06-25 20:28:44,   2015.481789827499,  400.1857,  402.7037,  399.1173,  403.4638,  399.0803,  400.5833,  399.7196,  402.8671,  398.3919,  400.5500,  400.3373
 2015-06-28 17:02:11,   2015.489616026129,  399.1250,  401.3476,  399.2743,  403.1864,  399.3743,  400.3633,  398.9311,  402.4398,  397.3965,  399.6200,  400.3083
 2015-06-28 17:30:31,   2015.489669932775,  399.0750,  401.3386,  399.2680,  403.1862,  399.3704,  400.3631,  398.9311,  402.4397,  397.3963,  399.6500,  400.3081
 2015-06-28 18:00:04,   2015.489726154236,  399.0231,  401.3302,  399.2593,  403.1822,  399.3657,  400.3402,  398.8848,  402.4445,  397.2164,  399.6900,  400.3059
 2015-06-28 18:30:52,   2015.489784753932,  398.8307,  401.3214,  399.2519,  403.1818,  399.3603,  400.3399,  398.8848,  402.4443,  397.2159,  399.7400,  400.3056
 2016-05-22 16:40:10,   2016.389875847500,  406.5600,  407.6944,  405.8007,  410.8753,  406.4343,  408.7255,  406.7826,  409.5856,  405.6619,  406.5900,  405.6651
 2016-05-22 17:01:25,   2016.389916167021,  406.7308,  407.6813,  405.7974,  410.8757,  406.4322,  408.7044,  406.7826,  409.5755,  405.6625,  406.5800,  405.6608
 2016-05-22 17:19:06,   2016.389949719186,  406.6000,  407.6680,  405.7974,  410.8767,  406.4332,  408.7058,  406.7826,  409.5762,  405.6641,  406.5700,  405.6616
 2016-05-23 19:06:00,   2016.392884790528,  406.5000,  407.3154,  405.8261,  410.8677,  406.3276,  408.5522,  406.6048,  409.3817,  405.4774,  406.1600,  405.6184
 2016-05-24 16:12:15,   2016.395287359593,  406.2667,  407.2110,  405.9258,  410.7815,  406.1588,  408.7404,  406.4108,  409.4915,  405.3013,  406.3300,  405.7359
 2016-05-24 16:28:04,   2016.395317369966,  406.0571,  407.2182,  405.9258,  410.7802,  406.1573,  408.7387,  406.4108,  409.4907,  405.2995,  406.3300,  405.7348
 2016-05-24 16:48:46,   2016.395356645922,  405.8000,  407.2249,  405.9254,  410.7757,  406.1528,  408.7384,  406.4099,  409.4906,  405.2993,  406.3400,  405.7347
 2016-05-24 17:34:25,   2016.395443261739,  406.1333,  407.2311,  405.9239,  410.7743,  406.1430,  408.7384,  406.4099,  409.4991,  405.2974,  406.3500,  405.7398
 2016-05-24 18:00:22,   2016.395492498988,  406.1769,  407.2368,  405.9224,  410.7709,  406.1383,  408.7367,  406.4164,  409.5037,  405.3197,  406.3600,  405.7436
 2016-05-24 18:31:00,   2016.395550622344,  406.3076,  407.2437,  405.9207,  410.7690,  406.1325,  408.7343,  406.4164,  409.5027,  405.3174,  406.3700,  405.7422
 2016-05-24 19:01:02,   2016.395607607266,  406.5000,  407.2536,  405.9187,  410.7690,  406.1289,  408.7306,  406.4164,  409.5043,  405.3174,  406.3800,  405.7446
 2016-05-24 19:15:50,   2016.395635688626,  406.8000,  407.2628,  405.9187,  410.7690,  406.1289,  408.7306,  406.4164,  409.5043,  405.3174,  406.3900,  405.7446
 2016-05-28 19:04:50,   2016.406543779093,  405.9200,  406.9588,  405.6103,  410.5665,  406.1183,  408.3260,  406.0654,  409.2367,  405.1106,  406.0700,  405.4650
 2016-05-28 19:29:41,   2016.406590929215,  405.9889,  406.9577,  405.6103,  410.5679,  406.1198,  408.3281,  406.0654,  409.2378,  405.1121,  406.0700,  405.4662
 2016-05-28 19:46:19,   2016.406622489122,  406.1000,  406.9570,  405.6113,  410.5766,  406.1172,  408.3292,  406.0846,  409.2383,  405.1129,  406.0700,  405.4668
 2016-05-30 18:39:41,   2016.411960540629,  405.9800,  407.0330,  405.5492,  410.6576,  405.1975,  408.2309,  406.2601,  409.3314,  405.0874,  406.0900,  405.5008
 2016-05-30 18:59:44,   2016.411998583283,  406.0333,  407.0284,  405.5492,  410.6576,  405.1975,  408.2309,  406.2601,  409.3314,  405.0874,  406.0900,  405.5008
 2016-05-30 19:30:24,   2016.412056769885,  405.9667,  407.0244,  405.5452,  410.6565,  405.1722,  408.2299,  406.2546,  409.3302,  405.0874,  406.0900,  405.4986
 2016-05-30 19:52:48,   2016.412099271402,  406.0571,  407.0212,  405.5452,  410.6561,  405.1718,  408.2293,  406.2546,  409.3299,  405.0868,  406.0900,  405.4983
 2016-06-16 18:59:23,   2016.458446006628,  404.7546,  405.2023,  403.3645,  407.6187,  403.1918,  404.4449,  402.6727,  408.5446,  402.7753,  403.6600,  404.1542
 2016-06-16 19:28:36,   2016.458501442016,  404.6111,  405.1860,  403.3611,  407.6185,  403.1950,  404.4527,  402.6727,  408.5166,  402.7748,  403.6600,  404.1586
 2016-06-16 20:00:33,   2016.458562063601,  404.6583,  405.1694,  403.3537,  407.6281,  403.2035,  404.4593,  402.6885,  408.4856,  402.7739,  403.6700,  404.1616
 2016-06-16 20:28:58,   2016.458615981077,  404.7500,  405.1526,  403.3537,  407.6278,  403.2032,  404.4591,  402.7007,  408.4849,  402.7735,  403.6700,  404.1613
 2016-06-16 20:49:35,   2016.458655098917,  404.6500,  405.1355,  403.3497,  407.6278,  403.2086,  404.4591,  402.7007,  408.4849,  402.7735,  403.6700,  404.1613
 2016-06-17 14:43:19,   2016.460692388939,  403.9667,  404.7196,  403.3082,  407.6568,  403.3258,  404.4788,  402.6887,  408.1266,  402.7101,  403.8800,  404.2036
 2016-06-17 15:00:59,   2016.460725909482,  403.8916,  404.7200,  403.3123,  407.6538,  403.3233,  404.4804,  402.7466,  408.1182,  402.6101,  403.8800,  404.2099
 2016-06-17 15:42:53,   2016.460805410089,  404.0000,  404.7174,  403.3162,  407.6530,  403.3195,  404.4796,  402.7466,  408.1168,  402.6088,  403.9000,  404.2090
 2016-06-17 15:59:03,   2016.460836084548,  404.0428,  404.7183,  403.3162,  407.6525,  403.3189,  404.4791,  402.7466,  408.1160,  402.6080,  403.9000,  404.2084
 2016-06-17 16:33:23,   2016.460901228243,  403.9800,  404.7197,  403.3237,  407.6488,  403.3122,  404.4839,  402.8017,  408.1079,  402.6074,  403.9100,  404.2152
 2016-06-17 16:59:58,   2016.460951667173,  404.1000,  404.7218,  403.3237,  407.6488,  403.3122,  404.4839,  402.8017,  408.1079,  402.6074,  403.9100,  404.2152
 2016-06-17 17:22:55,   2016.460995212255,  403.7400,  404.7245,  403.3271,  407.6488,  403.3088,  404.4887,  402.8017,  408.1017,  402.6074,  403.9200,  404.2228
 2016-06-17 18:05:54,   2016.461076768367,  404.1600,  404.7279,  403.3331,  407.6465,  403.3002,  404.4951,  402.8440,  408.0927,  402.6628,  403.9300,  404.2317